TimePDT,TemperatureF,Dew PointF,Humidity,Sea Level PressureIn,VisibilityMPH,Wind Direction,Wind SpeedMPH,Gust SpeedMPH,PrecipitationIn,Events,Conditions,WindDirDegrees,DateUTC
12:53 AM,52.0,48.9,89,29.88,10.0,South,4.6,-,N/A,,Overcast,190,2013-05-28 07:53:00
1:53 AM,53.1,48.9,86,29.89,10.0,South,8.1,-,N/A,,Overcast,180,2013-05-28 08:53:00
2:53 AM,53.1,48.9,86,29.89,10.0,SSW,8.1,-,N/A,,Overcast,200,2013-05-28 09:53:00
3:53 AM,53.1,48.9,86,29.89,10.0,SSW,6.9,-,N/A,,Overcast,200,2013-05-28 10:53:00
4:04 AM,53.6,48.2,82,29.89,10.0,SSW,6.9,-,N/A,,Overcast,200,2013-05-28 11:04:00
4:40 AM,51.8,48.2,88,29.90,10.0,SSW,5.8,-,N/A,,Overcast,200,2013-05-28 11:40:00
4:53 AM,52.0,48.9,89,29.90,10.0,SSW,5.8,-,N/A,,Overcast,210,2013-05-28 11:53:00
5:06 AM,51.8,48.2,88,29.90,10.0,SSW,5.8,-,N/A,,Overcast,210,2013-05-28 12:06:00
5:53 AM,52.0,48.9,89,29.90,10.0,SSW,6.9,-,N/A,,Overcast,200,2013-05-28 12:53:00
6:14 AM,53.6,50.0,88,29.90,10.0,SSW,5.8,-,N/A,,Overcast,200,2013-05-28 13:14:00
6:32 AM,53.6,50.0,88,29.91,10.0,SSW,6.9,-,N/A,,Overcast,200,2013-05-28 13:32:00
6:53 AM,53.1,48.9,86,29.91,10.0,South,11.5,-,N/A,,Overcast,190,2013-05-28 13:53:00
7:03 AM,53.6,50.0,88,29.91,10.0,South,9.2,-,N/A,,Overcast,180,2013-05-28 14:03:00
7:41 AM,53.6,50.0,88,29.92,10.0,South,9.2,-,N/A,,Overcast,190,2013-05-28 14:41:00
7:53 AM,54.0,50.0,86,29.91,10.0,South,10.4,16.1,N/A,,Overcast,190,2013-05-28 14:53:00
8:53 AM,55.9,50.0,80,29.92,10.0,South,10.4,-,N/A,,Mostly Cloudy,190,2013-05-28 15:53:00
9:23 AM,57.2,48.2,72,29.92,10.0,SW,6.9,-,N/A,,Mostly Cloudy,220,2013-05-28 16:23:00
9:35 AM,57.2,51.8,82,29.92,10.0,SSW,9.2,-,N/A,,Mostly Cloudy,200,2013-05-28 16:35:00
9:53 AM,57.9,50.0,75,29.92,10.0,South,11.5,17.3,N/A,,Overcast,190,2013-05-28 16:53:00
10:46 AM,57.2,46.4,67,29.93,10.0,SW,11.5,-,N/A,,Overcast,230,2013-05-28 17:46:00
10:53 AM,55.9,48.0,75,29.94,10.0,SW,10.4,18.4,0.00,Rain,Light Rain,230,2013-05-28 17:53:00
11:01 AM,57.2,48.2,72,29.93,10.0,SW,6.9,16.1,0.00,,Overcast,220,2013-05-28 18:01:00
11:53 AM,59.0,46.9,64,29.94,10.0,SSW,9.2,23.0,0.00,,Overcast,210,2013-05-28 18:53:00
12:53 PM,59.0,50.0,72,29.96,10.0,SW,9.2,-,N/A,,Overcast,220,2013-05-28 19:53:00
1:53 PM,61.0,48.0,62,29.95,10.0,SW,9.2,17.3,N/A,,Overcast,220,2013-05-28 20:53:00
2:53 PM,62.1,48.9,62,29.94,10.0,WSW,9.2,-,N/A,,Overcast,240,2013-05-28 21:53:00
3:53 PM,63.0,46.9,56,29.93,10.0,SW,11.5,20.7,N/A,,Partly Cloudy,230,2013-05-28 22:53:00
4:53 PM,63.0,45.0,52,29.93,10.0,WSW,11.5,17.3,N/A,,Scattered Clouds,240,2013-05-28 23:53:00
5:53 PM,62.1,45.0,53,29.91,10.0,WSW,5.8,-,N/A,,Clear,240,2013-05-29 00:53:00
8:53 PM,55.9,45.0,67,29.83,10.0,Calm,Calm,-,N/A,,Scattered Clouds,0,2013-05-29 03:53:00
9:53 PM,55.0,45.0,69,29.82,10.0,Calm,Calm,-,N/A,,Mostly Cloudy,0,2013-05-29 04:53:00
10:53 PM,53.1,48.9,86,29.82,4.0,Calm,Calm,-,0.03,Rain,Rain,0,2013-05-29 05:53:00
11:53 PM,52.0,51.1,97,29.79,6.0,Calm,Calm,-,0.07,Rain,Rain,0,2013-05-29 06:53:00